[[{"header":{"parameterUnit":"m.s-1","parameterCategory":1,"la1":30.2991,"la2":30.254,"lo1":-89.0895,"lo2":-89.0444,"dy":0.0017,"dx":0.0017,"nx":28,"ny":28,"refTime":"2024-05-29T09:00:00:Z","depth":0,"parameterNumber":2,"parameterNumberName":"U-component_of_WINDS"},"data":[0,0,0,0,0,0,0,0,0,0,0,0,0,0,0,0,0,0,0,0,0,0,0,0,0,0,0,0,0,0,0,0,0,0,0,0,0,0,0,0,0,0,0,0,0,0,0,0,0,0,0,0,0,0,0,0,0,0,-1.9888,-1.9889,0,-1.9965,-1.9966,-1.9967,-1.9926,-1.9924,-1.9922,-1.992,-1.9999,-2.0002,-2.0006,0,0,0,0,0,0,0,0,0,0,0,0,0,-1.9704,-1.9708,-1.9888,-1.9889,-1.989,-1.9965,-1.9966,-1.9967,-1.9926,-1.9924,-1.9921,-1.9919,-1.9997,-2.0002,-2.0007,0,0,0,0,0,0,0,0,0,0,0,0,0,-1.9783,-1.9709,-1.9888,-1.9878,-1.9878,-1.9965,-1.9966,-1.9967,-1.9927,-1.9924,-1.9921,-1.9918,-1.9996,-2.0001,-2.0007,-2.0107,0,0,-2.0026,-2.0029,0,0,0,0,0,0,0,0,-1.9779,-1.979,-1.9879,-1.9879,-1.9879,-1.9933,-1.993,-2.0014,-1.9928,-1.9908,-1.992,-1.9916,-1.9979,-1.9986,-2.0008,-2.0111,-2.0114,-2.0026,-2.003,-2.0033,-2.0034,0,0,0,0,0,0,0,-1.9773,-1.9786,-1.9918,-1.988,-1.988,-1.987,-1.9878,-1.9946,-1.996,-1.991,-1.9907,-1.9917,-1.9979,-2.0002,-2.0009,-2.0115,-2.0026,-2.0032,-2.0035,-2.0038,-2.0305,-2.0308,0,0,0,0,0,0,-1.9768,-1.9782,-1.9916,-1.9921,-1.982,-1.9876,-1.9885,-1.9919,-1.9959,-1.9963,-1.9919,-1.9915,-1.9993,-2.0002,-2.0012,-2.0132,-2.0033,-2.0038,-2.0042,-2.0301,-2.0306,-2.0309,0,0,0,0,0,0,-1.9765,-1.9781,-1.9913,-1.9851,-1.9867,-1.9883,-1.9921,-1.9922,-1.9945,-1.9967,-1.9969,-1.9941,-1.9991,-2.0003,-2.0084,-2.0134,-2.0041,-2.0047,-2.0297,-2.0303,-2.0308,-2.0373,0,0,0,0,0,0,-1.976,-1.978,-1.9818,-1.9852,-1.987,-1.9984,-1.9924,-1.9926,-1.9956,-1.995,-1.9987,-1.999,-1.9989,-2.0075,-2.009,-2.0141,-2.0051,-2.0293,-2.03,-2.0306,-2.0367,-2.038,-2.0392,0,0,0,0,0,-1.9753,-1.9833,-1.982,-1.9836,-1.9918,-1.9987,-1.9997,-1.9995,-1.996,-1.9999,-2.0012,-1.9989,-2.0126,-2.0084,-2.01,-2.0154,-2.029,-2.0298,-2.0305,-2.0361,-2.0378,-2.0391,0,0,0,0,0,0,-1.9805,-1.9837,-1.9823,-1.9916,-1.9949,-1.998,-2.0029,-2.0012,-2.0056,-2.0049,-2.0044,-2.0052,-2.0137,-2.0153,-2.0105,-2.0253,-2.0202,-2.0214,-2.0239,-2.0255,-2.0267,-2.0262,-2.0056,0,0,0,0,0,-1.9827,-1.988,-1.9905,-1.9985,-2.0002,-2.0013,-2.0043,-2.0038,-2.0072,-2.0085,-2.0105,-2.0138,-2.0189,-2.0222,-2.027,-2.0368,-2.0376,-2.0413,-2.0425,-2.0436,-2.0446,-2.05,-2.0517,-2.0335,-2.0335,-2.0335,0,0,-1.9873,-1.9897,-1.9931,-1.9996,-2.0021,-2.0077,-2.0025,-2.0085,-2.0126,-2.0094,-2.0172,-2.0188,-2.0225,-2.0315,-2.0356,-2.0331,-2.0498,-2.0445,-2.0453,-2.0459,-2.051,-2.0527,-2.0542,-2.034,-2.0339,-2.0339,0,0,-1.9986,-2.001,-2.0079,-2.0105,-2.0144,-2.015,-2.0167,-2.02,-2.0209,-2.0287,-2.0265,-2.0313,-2.04,-2.0428,-2.0453,-2.0577,-2.0557,-2.0592,-2.0658,-2.071,-2.0725,-2.0737,-2.0783,-2.0799,-2.0602,-2.0602,-2.0602,0,-2.0039,-2.0122,-2.0117,-2.018,-2.0209,-2.0183,-2.0253,-2.0279,-2.0331,-2.0352,-2.0323,-2.0432,-2.0455,-2.0552,-2.0582,-2.0603,-2.0622,-2.0589,-2.0723,-2.0736,-2.0747,-2.0791,-2.0808,-2.0606,-2.0606,-2.0605,-2.0605,0,-2.0186,-2.0244,-2.0295,-2.0347,-2.0381,-2.0448,-2.0453,-2.0489,-2.0481,-2.049,-2.057,-2.0596,-2.065,-2.0672,-2.0664,-2.0768,-2.0752,-2.0723,-2.0673,-2.0769,-2.081,-2.0826,-2.0612,-2.0611,-2.0609,-2.0608,0,0,-2.0335,-2.0383,-2.0402,-2.0425,-2.0465,-2.051,-2.0575,-2.0627,-2.0658,-2.0694,-2.075,-2.0824,-2.0798,-2.0827,-2.0822,-2.0868,-2.0966,-2.0834,-2.0835,-2.0859,-2.1083,-2.1105,-2.1124,-2.0952,-2.0955,-2.0958,-2.108,0,-2.0452,-2.0567,-2.0564,-2.067,-2.0724,-2.0699,-2.0756,-2.0787,-2.0797,-2.0844,-2.0854,-2.0908,-2.0869,-2.0886,-2.0931,-2.0945,-2.1011,-2.0935,-2.1004,-2.1007,-2.0998,-2.1145,-2.1169,-2.1283,-2.1096,-2.1098,-2.11,0,-2.0605,-2.0647,-2.0759,-2.0792,-2.0814,-2.0865,-2.0913,-2.0958,-2.0992,-2.0996,-2.1029,-2.1017,-2.1083,-2.1029,-2.1121,-2.1069,-2.1097,-2.1108,-2.1112,-2.112,-2.1061,-2.1159,-2.132,-2.1337,-2.1125,-2.1123,-2.1121,0,-2.0704,-2.0789,-2.0867,-2.0887,-2.0927,-2.0964,-2.0982,-2.1013,-2.1045,-2.1086,-2.1107,-2.1155,-2.1182,-2.122,-2.1221,-2.1182,-2.1314,-2.126,-2.132,-2.132,-2.135,-2.1349,-2.1519,-2.1365,-2.1365,-2.1364,-2.1364,0,-2.0837,-2.0907,-2.0912,-2.0961,-2.1038,-2.1034,-2.1111,-2.1125,-2.1153,-2.1204,-2.1184,-2.1232,-2.123,-2.1279,-2.128,-2.1357,-2.1368,-2.1374,-2.1374,-2.1377,-2.1376,-2.1396,-2.1389,-2.1369,-2.1368,-2.1367,-2.1366,0,-2.0962,-2.0968,-2.1052,-2.1083,-2.1092,-2.1148,-2.1174,-2.122,-2.1228,-2.1293,-2.1308,-2.1321,-2.1377,-2.1381,-2.1446,-2.1447,-2.154,-2.153,-2.1529,-2.1528,-2.1588,-2.1583,-2.1779,-2.1805,-2.1632,-2.1634,-2.1635,0,-2.1047,-2.11,-2.1137,-2.1169,-2.119,-2.1243,-2.1275,-2.1272,-2.1307,-2.135,-2.1391,-2.1445,-2.1489,-2.158,-2.1595,-2.1645,-2.1637,-2.1702,-2.1644,-2.1646,-2.164,-2.1638,-2.1643,-2.1714,-2.1716,-2.1718,-2.1719,0,-2.1197,-2.1198,-2.1245,-2.1294,-2.1334,-2.1372,-2.1407,-2.1435,-2.1437,-2.1476,-2.1534,-2.1568,-2.1634,-2.1689,-2.1738,-2.1756,-2.1739,-2.1737,-2.1753,-2.1758,-2.1756,-2.1759,-2.1561,-2.1733,-2.1731,-2.173,-2.1729,-2.1729,-2.1306,-2.1353,-2.1386,-2.144,-2.1466,-2.15,-2.1545,-2.1559,-2.1607,-2.1661,-2.1656,-2.172,-2.1753,-2.1817,-2.1839,-2.1889,-2.1867,-2.1891,-2.1897,-2.1903,-2.1911,-2.1746,-2.1897,-2.1897,-2.1897,-2.1896,-2.1896,0,-2.1457,-2.1477,-2.1527,-2.1577,-2.162,-2.1599,-2.1637,-2.1674,-2.1731,-2.1763,-2.1806,-2.1872,-2.1925,-2.1944,-2.1996,-2.2032,-2.2025,-2.2046,-2.2044,-2.2049,-2.1926,-2.1908,-2.205,-2.205,-2.205,-2.205,-2.205,-2.205,-2.1541,-2.1619,-2.1624,-2.1715,-2.1734,-2.1797,-2.1821,-2.1852,-2.1878,-2.1953,-2.1997,-2.2009,-2.2036,-2.2089,-2.2137,-2.2141,-2.2161,-2.2186,-2.2187,-2.2073,-2.2057,-2.2042,-2.2025,-2.219,-2.219,-2.2305,-2.2306,-2.2307]},{"header":{"parameterUnit":"m.s-1","parameterCategory":1,"la1":30.2991,"la2":30.254,"lo1":-89.0895,"lo2":-89.0444,"dy":0.0017,"dx":0.0017,"nx":28,"ny":28,"refTime":"2024-05-29T09:00:00:Z","depth":0,"parameterNumber":3,"parameterNumberName":"V-component_of_WINDS"},"data":[0,0,0,0,0,0,0,0,0,0,0,0,0,0,0,0,0,0,0,0,0,0,0,0,0,0,0,0,0,0,0,0,0,0,0,0,0,0,0,0,0,0,0,0,0,0,0,0,0,0,0,0,0,0,0,0,0,0,-4.2336,-4.2336,0,-4.2396,-4.2397,-4.2398,-4.2329,-4.2326,-4.2324,-4.2321,-4.2378,-4.2381,-4.2385,0,0,0,0,0,0,0,0,0,0,0,0,0,-4.2154,-4.2158,-4.2336,-4.2336,-4.2337,-4.2396,-4.2397,-4.2398,-4.2329,-4.2326,-4.2323,-4.232,-4.2376,-4.2381,-4.2386,0,0,0,0,0,0,0,0,0,0,0,0,0,-4.2226,-4.2159,-4.2335,-4.231,-4.2309,-4.2396,-4.2397,-4.2398,-4.233,-4.2326,-4.2322,-4.2319,-4.2375,-4.2381,-4.2386,-4.25,0,0,-4.2404,-4.2407,0,0,0,0,0,0,0,0,-4.2222,-4.2232,-4.2313,-4.2312,-4.231,-4.2351,-4.2354,-4.2432,-4.2331,-4.2322,-4.2321,-4.2317,-4.2372,-4.2378,-4.2397,-4.2503,-4.2505,-4.2405,-4.2408,-4.2411,-4.2413,0,0,0,0,0,0,0,-4.2217,-4.2229,-4.2359,-4.2314,-4.2313,-4.2294,-4.23,-4.2368,-4.2367,-4.2322,-4.2317,-4.2326,-4.237,-4.2392,-4.2398,-4.2506,-4.2405,-4.241,-4.2413,-4.2416,-4.2706,-4.271,0,0,0,0,0,0,-4.2215,-4.2226,-4.2357,-4.2361,-4.2256,-4.23,-4.2307,-4.2342,-4.2367,-4.2367,-4.2329,-4.2322,-4.2384,-4.2391,-4.24,-4.2534,-4.2411,-4.2416,-4.242,-4.2702,-4.2707,-4.2712,0,0,0,0,0,0,-4.2212,-4.2228,-4.2355,-4.2292,-4.2307,-4.2307,-4.2347,-4.2345,-4.2367,-4.2372,-4.2371,-4.2352,-4.2381,-4.2391,-4.2476,-4.2535,-4.2419,-4.2424,-4.2697,-4.2704,-4.271,-4.2804,0,0,0,0,0,0,-4.2207,-4.2227,-4.2272,-4.2294,-4.2311,-4.2432,-4.2351,-4.2349,-4.2378,-4.237,-4.2393,-4.2393,-4.2379,-4.2467,-4.2482,-4.2541,-4.2429,-4.2692,-4.27,-4.2708,-4.2796,-4.2813,-4.2828,0,0,0,0,0,-4.2201,-4.2295,-4.2274,-4.2291,-4.2367,-4.2436,-4.2445,-4.2429,-4.2383,-4.2427,-4.243,-4.2392,-4.2526,-4.2477,-4.2492,-4.2554,-4.2688,-4.2698,-4.2707,-4.2789,-4.281,-4.2827,0,0,0,0,0,0,-4.2278,-4.2297,-4.2275,-4.2379,-4.2407,-4.2424,-4.2479,-4.2451,-4.2491,-4.2481,-4.2457,-4.2463,-4.2553,-4.2561,-4.2506,-4.2665,-4.2599,-4.2612,-4.2656,-4.2676,-4.2692,-4.2688,-4.2434,0,0,0,0,0,-4.2307,-4.2364,-4.2377,-4.2467,-4.2483,-4.2479,-4.2508,-4.2493,-4.252,-4.253,-4.2539,-4.2565,-4.2613,-4.2645,-4.2689,-4.2796,-4.28,-4.2847,-4.2863,-4.2876,-4.2887,-4.2944,-4.2965,-4.2743,-4.2743,-4.2743,0,0,-4.2368,-4.2385,-4.2422,-4.2483,-4.2503,-4.256,-4.2489,-4.2552,-4.2594,-4.2539,-4.262,-4.2628,-4.2654,-4.2751,-4.2794,-4.2761,-4.2949,-4.2888,-4.2898,-4.2903,-4.2956,-4.2977,-4.2996,-4.2749,-4.2748,-4.2747,0,0,-4.2508,-4.2528,-4.2605,-4.2627,-4.2658,-4.2655,-4.2673,-4.2695,-4.2699,-4.278,-4.274,-4.2788,-4.2871,-4.2892,-4.2913,-4.3061,-4.3028,-4.3076,-4.3159,-4.3215,-4.3233,-4.3248,-4.3301,-4.332,-4.3087,-4.3088,-4.3088,0,-4.2579,-4.2666,-4.2648,-4.2715,-4.2743,-4.2698,-4.2775,-4.2796,-4.2839,-4.2858,-4.2821,-4.2925,-4.2939,-4.304,-4.3076,-4.3095,-4.3115,-4.3073,-4.3232,-4.3247,-4.3261,-4.3311,-4.3331,-4.3093,-4.3093,-4.3092,-4.3091,0,-4.2752,-4.2812,-4.2871,-4.2916,-4.295,-4.3022,-4.3013,-4.3049,-4.3031,-4.3031,-4.3114,-4.313,-4.3177,-4.3199,-4.3181,-4.3297,-4.3276,-4.3236,-4.317,-4.3288,-4.3335,-4.3354,-4.3101,-4.3099,-4.3098,-4.3096,0,0,-4.2942,-4.2977,-4.2999,-4.3019,-4.305,-4.3096,-4.3164,-4.3212,-4.3243,-4.3274,-4.333,-4.3402,-4.3365,-4.339,-4.3373,-4.3422,-4.3538,-4.3376,-4.3376,-4.3406,-4.3666,-4.3696,-4.3719,-4.3516,-4.352,-4.3522,-4.3664,0,-4.3083,-4.3206,-4.3192,-4.3307,-4.3363,-4.332,-4.338,-4.3404,-4.3406,-4.3451,-4.3452,-4.3503,-4.3451,-4.3465,-4.3512,-4.3514,-4.359,-4.3504,-4.3567,-4.3569,-4.3562,-4.3743,-4.3775,-4.3908,-4.3682,-4.3685,-4.3687,0,-4.3264,-4.3304,-4.3426,-4.3449,-4.3471,-4.3526,-4.3568,-4.3613,-4.3638,-4.3636,-4.3664,-4.3639,-4.3706,-4.3638,-4.373,-4.3671,-4.3696,-4.3701,-4.3705,-4.3711,-4.3636,-4.3753,-4.395,-4.397,-4.3716,-4.3713,-4.3711,0,-4.3391,-4.3475,-4.3559,-4.3577,-4.3606,-4.3645,-4.3658,-4.368,-4.371,-4.3746,-4.3764,-4.3807,-4.3831,-4.3863,-4.385,-4.3802,-4.3944,-4.3875,-4.3942,-4.3943,-4.3975,-4.3973,-4.4178,-4.399,-4.399,-4.399,-4.3989,0,-4.355,-4.3627,-4.3617,-4.3668,-4.3752,-4.3734,-4.3817,-4.3824,-4.3844,-4.3895,-4.386,-4.3908,-4.3887,-4.3933,-4.3923,-4.4,-4.401,-4.4009,-4.4006,-4.4013,-4.4013,-4.4029,-4.4019,-4.3995,-4.3994,-4.3993,-4.3992,0,-4.3707,-4.3703,-4.3792,-4.3812,-4.3819,-4.388,-4.3895,-4.3943,-4.3942,-4.4007,-4.402,-4.4018,-4.4071,-4.4061,-4.4118,-4.411,-4.4207,-4.4192,-4.4199,-4.4196,-4.4264,-4.4258,-4.4487,-4.4516,-4.4309,-4.4311,-4.4313,0,-4.3809,-4.3867,-4.3894,-4.3926,-4.3943,-4.3996,-4.4026,-4.401,-4.4043,-4.4077,-4.412,-4.4169,-4.4208,-4.4294,-4.4296,-4.4339,-4.4325,-4.4402,-4.4331,-4.4336,-4.4326,-4.4323,-4.4328,-4.4416,-4.4418,-4.442,-4.4422,0,-4.399,-4.3986,-4.4032,-4.4078,-4.4116,-4.4151,-4.4182,-4.421,-4.4196,-4.4234,-4.4289,-4.4319,-4.4378,-4.4428,-4.4468,-4.4479,-4.4448,-4.4444,-4.4462,-4.447,-4.4472,-4.4472,-4.4238,-4.4439,-4.4437,-4.4436,-4.4435,-4.4435,-4.4122,-4.4172,-4.4199,-4.4252,-4.4274,-4.4304,-4.435,-4.4355,-4.4401,-4.4449,-4.4436,-4.4498,-4.452,-4.4572,-4.4588,-4.4634,-4.4605,-4.4631,-4.4637,-4.4644,-4.4653,-4.4465,-4.4641,-4.464,-4.464,-4.464,-4.4639,0,-4.4302,-4.4317,-4.4366,-4.4412,-4.4453,-4.4423,-4.4455,-4.4491,-4.4546,-4.4572,-4.4611,-4.4673,-4.4721,-4.4727,-4.4772,-4.4807,-4.4794,-4.482,-4.4817,-4.482,-4.4676,-4.4656,-4.483,-4.483,-4.483,-4.4829,-4.4829,-4.4829,-4.44,-4.4483,-4.4482,-4.4574,-4.4588,-4.465,-4.4672,-4.4698,-4.4718,-4.479,-4.483,-4.4835,-4.4852,-4.4897,-4.4939,-4.4939,-4.4957,-4.4988,-4.4983,-4.4849,-4.483,-4.4812,-4.4793,-4.4992,-4.4993,-4.5123,-4.5124,-4.5125]}]]